Regional Weather Roundup
Issued by NWS Albany, NY

Home | Current Version | Previous Version | Text Only | Print | Product List | Glossary On
Versions: 1 2 3 4 5 6 7 8 9 10 11 12 13 14 15 16 17 18 19 20 21 22 23 24 25 26 27 28 29 30 31 32 33 34 35 36 37 38 39 40 41 42 43 44 45 46 47 48 49
000
ASUS41 KALY 210410
RWRALY

NEW YORK STATE HOURLY WEATHER ROUNDUP
NATIONAL WEATHER SERVICE ALBANY NY
1200 AM EDT TUE OCT 21 2014

NOTE: "FAIR" INDICATES FEW OR NO CLOUDS BELOW 12,000 FEET WITH NO
SIGNIFICANT WEATHER AND/OR NO OBSTRUCTIONS TO VISIBILITY.

NYZ032-033-038>043-046>054-057>066-NYZ062>081-210500-
EAST


CITY           SKY/WX    TMP DP  RH WIND       PRES   REMARKS
ALBANY         CLOUDY    52  38  58 S8        29.93F
GLENS FALLS    CLOUDY    45  40  82 CALM      29.93F
POUGHKEEPSIE   CLOUDY    49  41  74 CALM      29.95F
MONTGOMERY     CLOUDY    45  40  82 CALM      29.95S
WHITE PLAINS   CLOUDY    52  43  71 CALM      29.96F
ISLIP          MOCLDY    57  47  69 SW8       29.96F
NEW YORK CITY  CLOUDY    58  44  60 SW9       29.97S
CENTRAL PARK   CLOUDY    58  43  57 VRB3G17   29.99F
$$

NYZ005>009-017-018-044>046-055-056-210500-
CENTRAL


CITY           SKY/WX    TMP DP  RH WIND       PRES   REMARKS
FULTON         LGT RAIN  49  44  83 CALM      29.86F
SYRACUSE       LGT RAIN  53  44  70 CALM      29.88S
ROME           LGT RAIN  48  43  82 E5        29.90S
ELMIRA         CLOUDY    48  46  93 CALM      29.87F
BINGHAMTON     CLOUDY    49  38  65 S7        29.88F
MONTICELLO     CLOUDY    46  39  76 CALM      29.94F
$$

NYZ026>034-041>043-210500-
NORTH


CITY           SKY/WX    TMP DP  RH WIND       PRES   REMARKS
WATERTOWN      CLOUDY    54  38  54 S9        29.85F
FORT DRUM      NOT AVBL
MASSENA        LGT RAIN  44  44 100 NE5       29.91F
SARANAC LAKE   CLOUDY    40  37  89 CALM      29.88S
PLATTSBURGH    CLOUDY    42  40  92 CALM      29.93R
$$

NYZ001>004-010>016-019>021-210500-
WEST


CITY           SKY/WX    TMP DP  RH WIND       PRES   REMARKS
NIAGARA FALLS  LGT RAIN  51  49  92 SW8       29.80S FOG
BUFFALO        CLOUDY    51  46  83 S10       29.81F
DUNKIRK        LGT RAIN  50  48  93 S13G24    29.80F
JAMESTOWN      CLOUDY    46  45  93 S7        29.83F
WELLSVILLE     CLOUDY    46  43  89 S6        29.86F
ROCHESTER      LGT RAIN  50  47  89 S7        29.83F
PENN YAN       CLOUDY    48  46  93 CALM      29.86F
$$

             KEY
       WCI = WIND CHILL INDEX
       VSB = VISIBILITY
       HX  = HEAT INDEX
$$



USA.gov is the U.S. government's official web portal to all federal, state and local government web resources and services.